SCP
0 0 0 0 0 0 0 0 0 0 0 0 0 0 0 0 0 0 0 0 0 0 0 0 0 0 0 0 0 0 0 0 0 0 0 0 0 0 0 0 0 0 0
0 0 0 0 0 0 0 0 0 0 0 0 0 0 0 0 0 0 0 0 0 0 0 0 0 0 0 0 0 0 0 0 0 0 0 0 0 0 0 0 0 0 0
0 0 0 0 0 0 0 0 0 0 0 0 0 0 0 0 0 0 0 0 0 0 0 0 0 0 0 0 0 0 0 0 0 0 0 0 0 0 0 0 0 0 0
0 0 0 0 0 0 0 0 0 0 0 0 0 0 0 0 0 0 0 0 0 0 0 0 0 0 0 0 0 0 0 0 0 0 0 0 0 0 0 0 0 0 0
0 0 0 0 0 0 0 0 0 0 0 0 0 0 0 0 0 0 0 0 0 0 0 0 0 0 0 0 0 0 0 0 0 0 0 0 0 0 0 0 0 0 0
0 0 0 0 0 0 0 0 0 0 0 0 0 0 0 0 0 0 0 0 0 0 0 0 0 0 0 0 0 0 0 0 0 0 0 0 0 0 0 0 0 0 0
0 0 1 0 0 0 0 0 0 0 0 0 0 0 0 0 0 0 0 0 0 0 0 0 0 0 0 0 0 0 0 0 0 0 0 0 0 0 0 0 0 0 0
0 0 1 0 0 0 0 0 0 0 0 0 0 0 0 0 0 0 0 0 0 0 0 0 0 0 0 0 0 0 0 0 0 0 0 0 0 0 0 0 0 0 0
0 0 0 0 0 0 0 0 0 0 0 0 0 0 0 0 0 0 0 0 0 0 0 0 0 0 0 0 0 0 0 0 0 0 0 0 0 0 0 0 0 0 0
0 0 0 0 0 0 0 0 0 0 0 0 0 0 0 0 0 0 0 0 0 0 0 0 0 0 0 0 0 0 0 0 0 0 0 0 0 0 0 0 0 0 0
1 1 1 1 0 0 0 0 0 0 0 0 0 0 0 0 0 0 0 0 0 0 0 0 0 0 0 0 0 0 0 0 0 0 0 0 0 0 0 0 0 0 0
1 1 1 1 1 1 1 1 0 0 0 0 0 0 0 0 0 0 0 0 0 0 0 0 0 0 0 0 0 0 0 0 0 0 0 0 0 0 0 0 0 0 0
1 1 1 1 1 1 1 1 1 1 0 0 0 0 0 0 0 0 0 0 0 0 0 0 0 0 0 0 0 0 0 0 0 0 0 0 0 0 0 0 0 0 0
1 1 1 1 1 1 1 1 1 1 1 0 0 0 0 0 0 0 0 0 0 0 0 0 0 0 0 0 0 0 0 0 0 0 0 0 0 0 0 0 0 0 0
1 1 1 1 1 1 1 1 1 1 1 0 0 0 0 0 0 0 0 0 0 0 0 0 0 0 0 0 0 0 0 0 0 0 0 0 0 0 0 0 0 0 0
1 1 1 1 1 1 1 1 1 1 1 1 0 0 0 0 0 0 0 0 0 0 0 0 0 0 0 0 0 0 0 0 0 0 0 0 0 0 0 0 0 0 0
1 1 1 1 1 1 1 1 1 1 1 1 1 0 0 0 0 0 0 0 0 0 0 0 0 0 0 0 0 0 0 0 0 0 0 0 0 0 0 0 0 0 0
1 1 1 1 1 1 1 1 1 1 1 1 1 0 0 0 0 0 0 0 0 0 0 0 0 0 0 0 0 0 0 0 0 0 0 0 0 0 0 0 0 0 0
1 1 1 1 1 1 1 1 1 1 1 1 1 1 0 0 0 0 0 0 0 0 0 0 0 0 0 0 0 0 0 0 0 0 0 0 0 0 0 0 0 0 0
1 1 1 1 1 1 1 1 1 1 1 1 1 1 1 0 0 0 0 0 0 0 0 0 0 0 0 0 0 0 0 0 0 0 0 0 0 0 0 0 0 0 0
1 1 1 1 1 1 1 1 1 1 1 1 1 1 1 0 0 0 0 0 0 0 0 0 0 0 0 0 0 0 0 0 0 0 0 0 0 0 0 0 0 0 0
1 1 1 1 1 1 1 1 1 1 1 1 1 1 1 0 0 0 0 0 0 0 0 0 0 0 0 0 0 0 0 0 0 0 0 0 0 0 0 0 0 0 0
1 1 1 1 1 1 1 1 1 1 1 1 1 1 1 1 0 0 0 0 0 0 0 0 0 0 0 0 0 0 0 0 0 0 0 0 0 0 0 0 0 0 0
1 1 1 1 1 1 1 1 1 1 1 1 1 1 1 1 0 0 0 0 0 0 0 0 0 0 0 0 0 0 0 0 0 0 0 0 0 0 0 0 0 0 0
0 0 0 1 1 1 1 1 1 1 1 1 1 1 1 1 0 0 0 0 0 0 0 0 0 0 0 0 0 0 0 0 0 0 0 0 0 0 0 0 0 0 0
0 0 0 0 1 1 1 1 1 1 1 1 1 1 1 1 0 0 0 0 0 0 0 0 0 0 0 0 0 0 0 0 0 0 0 0 0 0 0 0 0 0 0
Wind_Speed
15 18 18 15 15 15 15 15 15 15 15 15 14 14 13 12 12 11 11 10 10 10 10 10 11 11 11 11 12 12 12 12 13 13 14 14 14 14 13 13 12 14 15
18 20 19 16 16 16 15 15 15 15 15 15 14 14 13 12 12 11 11 10 10 10 11 11 11 12 11 11 12 12 12 12 12 13 14 14 14 13 11 10 11 12 14
20 20 19 16 16 16 16 15 15 15 15 15 14 13 13 12 12 11 11 11 10 11 11 11 11 12 11 11 11 11 12 12 12 11 11 11 13 12 12 13 15 14 14
21 20 18 18 17 17 16 15 15 15 15 15 14 13 13 12 12 11 11 11 11 11 11 11 11 11 11 11 11 11 11 11 10 8 7 10 11 13 12 13 13 13 13
19 19 19 19 18 17 16 15 15 15 15 14 14 13 12 12 12 11 11 11 11 11 11 11 11 11 11 11 10 11 11 10 6 5 9 9 10 11 12 12 12 12 12
19 19 20 19 18 17 16 15 15 15 14 14 13 13 12 12 12 11 11 11 11 11 11 11 11 10 10 10 10 10 9 7 8 8 8 8 10 10 11 11 12 12 11
19 18 21 19 18 17 16 16 15 15 14 13 13 13 12 12 12 11 11 11 11 11 11 10 10 9 9 9 9 9 7 4 3 8 7 8 11 9 10 11 11 11 11
19 19 20 19 18 17 16 16 15 15 14 13 13 13 12 12 12 11 11 11 11 10 10 10 9 8 8 7 7 7 6 5 7 7 7 9 11 9 10 10 10 10 10
18 18 18 18 17 17 16 15 15 14 14 13 13 12 12 11 11 11 11 11 10 10 9 9 8 7 7 7 7 7 5 4 3 6 7 8 10 8 9 9 9 9 9
16 17 17 17 16 16 15 15 15 14 13 13 12 12 12 12 11 10 11 10 10 9 9 8 7 7 6 7 7 8 6 6 4 6 5 10 9 8 9 8 9 9 9
15 15 16 16 15 15 14 15 15 14 13 13 12 12 11 10 10 9 11 10 9 8 8 7 7 6 6 8 7 7 7 3 5 4 5 12 8 8 8 8 8 8 8
17 16 14 15 15 14 12 12 10 11 11 9 9 10 7 6 5 7 11 8 8 8 7 6 5 6 8 7 9 8 3 3 4 4 7 10 7 7 7 7 7 7 7
17 16 14 13 13 13 9 9 7 6 7 8 9 8 5 6 5 6 6 7 7 8 6 7 7 4 2 3 2 2 2 2 2 3 9 9 7 7 7 7 7 7 7
17 17 15 14 12 11 10 8 8 7 7 7 8 8 7 4 4 4 3 5 5 4 3 3 2 3 2 3 2 2 3 1 2 3 7 8 6 6 6 7 7 7 7
16 16 15 14 13 11 9 7 8 7 8 7 7 7 6 5 5 5 3 3 3 3 5 3 2 3 2 3 2 2 2 2 3 2 6 7 6 5 5 6 7 7 7
16 15 14 14 13 12 9 8 7 7 6 7 7 8 7 5 4 5 5 4 3 3 2 2 3 3 2 2 2 2 1 3 3 1 3 7 7 6 6 6 6 7 7
15 14 14 14 13 13 12 11 8 7 8 7 6 7 7 6 5 4 4 5 4 3 4 3 3 3 3 3 3 3 2 2 3 2 2 2 6 8 7 6 5 6 7
14 14 14 13 14 13 11 10 7 7 8 7 7 7 8 7 6 5 4 4 4 4 3 3 3 3 2 2 2 2 2 2 3 4 4 3 3 4 8 7 5 5 6
14 15 14 13 13 13 12 9 8 6 7 7 6 6 7 7 7 5 4 4 5 4 3 4 3 2 2 2 3 3 2 3 3 4 3 3 4 3 4 9 8 6 6
14 15 15 14 13 12 10 8 6 7 7 7 6 6 8 7 7 6 5 5 5 4 3 2 3 2 1 2 2 1 2 2 3 4 4 4 4 5 4 3 6 7 7
14 14 15 15 13 11 9 9 9 9 8 7 7 8 9 8 8 6 5 5 5 4 4 5 4 5 3 2 3 3 4 4 3 3 4 3 4 4 3 3 3 2 5
14 14 14 14 13 13 10 8 7 8 8 7 6 7 9 8 8 8 6 6 6 4 5 5 4 3 3 3 3 3 3 5 5 4 4 4 4 4 4 5 3 3 3
13 14 13 14 14 14 12 9 7 6 6 6 7 7 8 8 8 7 8 7 6 7 6 6 6 6 4 4 4 3 3 2 4 5 4 3 4 3 4 3 5 5 4
13 13 13 13 13 13 13 12 12 10 9 9 7 7 8 8 8 8 8 7 7 6 5 7 7 5 5 5 4 3 4 4 3 3 5 5 5 4 4 3 4 5 4
12 12 12 12 12 12 13 13 12 10 8 7 7 8 8 8 8 8 8 7 7 6 6 5 4 6 5 5 4 4 4 3 5 4 3 3 5 5 4 4 3 3 3
10 11 12 12 12 12 13 13 13 11 10 9 9 9 8 7 7 9 8 7 7 6 6 6 5 7 5 4 4 4 4 4 5 4 4 4 4 4 3 3 4 4 4
Wind_Direction
157 145 146 150 147 143 142 141 140 140 139 136 134 133 132 130 127 122 118 114 109 105 103 102 102 102 102 100 101 103 106 107 108 109 108 107 107 109 112 121 125 109 110
149 144 147 151 148 144 142 140 138 138 139 138 136 134 133 131 127 123 120 115 111 108 105 104 104 103 103 102 103 105 108 109 111 114 117 113 108 107 106 98 88 103 114
148 144 151 151 149 145 142 141 139 138 138 137 137 136 134 132 128 125 121 116 112 108 105 105 104 104 104 104 103 106 108 110 114 125 139 121 111 106 103 97 100 110 111
148 148 153 150 150 147 144 142 140 139 139 138 137 136 134 131 128 125 120 116 113 109 106 106 106 105 104 103 103 105 107 110 121 162 136 112 113 107 109 108 109 111 111
148 148 145 152 151 148 146 144 141 140 140 139 137 136 134 131 127 123 119 115 112 110 107 105 105 105 105 104 105 107 108 114 143 171 100 102 102 111 113 113 112 112 112
150 151 146 155 152 150 148 145 142 142 141 139 138 137 133 130 127 124 119 114 112 110 107 105 105 105 107 108 109 111 115 138 187 107 108 112 108 116 117 116 114 114 114
155 152 148 156 154 152 150 147 145 144 143 141 139 136 133 129 126 123 119 115 112 110 108 106 106 107 110 113 114 117 122 188 130 107 113 102 104 118 119 118 116 116 117
156 152 147 157 156 155 153 150 148 146 144 141 138 135 131 128 126 123 122 118 115 113 111 108 107 106 108 114 119 124 139 225 131 117 109 100 106 121 121 119 119 118 117
159 153 153 159 159 157 155 153 151 148 145 142 138 136 132 129 127 125 123 121 119 117 114 112 108 103 104 112 121 130 140 278 143 118 118 107 117 126 124 123 124 122 120
163 160 159 162 161 162 160 157 154 151 148 144 141 139 134 132 131 131 135 122 121 120 119 116 110 106 107 112 120 130 153 222 138 127 116 112 127 134 134 132 130 128 126
169 166 167 163 164 167 162 155 159 155 151 153 151 146 158 157 146 155 116 122 125 123 121 117 115 119 134 131 127 144 186 189 118 108 97 111 137 142 141 139 138 136 135
173 174 172 167 165 168 163 157 164 164 159 171 153 161 167 139 140 125 118 129 130 129 131 124 133 175 211 154 147 184 186 140 126 127 106 124 143 151 148 148 148 149 147
174 176 173 170 168 170 161 162 164 161 160 165 156 162 149 153 151 146 149 151 153 164 162 150 186 197 169 94 138 153 117 139 131 121 116 139 156 161 161 162 163 163 160
178 178 175 171 172 173 167 164 166 164 166 164 158 171 160 166 164 149 158 150 163 161 152 175 179 151 138 139 145 130 145 161 121 101 119 148 166 173 174 172 173 175 175
179 180 177 173 174 173 168 175 171 169 168 162 160 170 171 170 173 156 149 158 166 152 166 186 162 141 167 163 164 141 136 123 114 138 123 150 169 176 183 185 183 183 185
181 180 176 177 176 174 174 176 170 171 167 168 169 167 181 177 165 165 167 168 167 176 156 174 151 167 180 140 142 127 149 135 121 158 137 150 166 174 185 191 193 193 193
184 181 178 179 177 180 180 180 175 173 173 173 166 166 178 181 171 182 172 181 170 159 160 182 166 179 180 172 157 160 164 163 143 163 171 167 165 171 179 190 199 203 206
186 183 182 183 180 184 183 182 178 180 172 175 170 171 180 182 181 191 184 176 161 173 175 167 196 193 176 187 170 188 166 167 174 180 183 185 189 168 167 174 188 204 213
187 183 182 184 183 184 180 179 180 177 177 178 176 176 178 186 186 194 190 158 179 179 183 196 159 206 182 202 191 181 198 193 187 192 186 190 180 197 172 158 180 195 208
186 183 183 183 184 182 177 173 176 180 183 184 181 179 180 187 190 194 186 172 192 182 185 187 152 195 213 219 236 157 207 194 206 185 200 185 187 198 201 173 184 182 188
187 185 185 184 180 180 178 177 179 181 184 184 184 181 186 191 187 195 193 171 201 189 193 188 192 184 209 196 212 197 190 196 188 192 206 199 183 189 181 186 222 188 176
187 187 186 182 181 184 182 181 184 179 183 183 184 179 190 190 190 193 197 193 193 188 195 196 208 227 205 201 235 225 201 181 193 189 188 201 202 192 190 191 181 197 236
187 188 185 184 184 186 181 178 175 168 177 177 183 182 191 192 193 204 194 204 193 206 194 199 201 218 220 205 230 258 258 227 164 172 195 202 206 215 217 191 196 190 208
189 188 184 182 184 185 184 185 182 182 185 188 184 182 185 193 195 196 199 201 205 212 193 207 201 213 226 218 195 240 290 343 276 184 189 184 197 217 233 234 208 194 204
188 188 185 183 186 187 190 190 191 192 190 184 184 178 186 188 195 196 198 200 205 216 207 217 191 223 223 238 223 209 215 220 251 268 223 193 196 200 203 224 236 224 204
184 185 183 183 186 188 191 191 193 192 189 186 187 181 187 186 192 194 198 199 205 211 201 207 207 210 235 248 257 239 227 228 231 241 241 226 219 196 196 224 233 219 219